Regional Weather Roundup
Issued by NWS

Home | Current Version | Previous Version | Text Only | Print | Product List | Glossary On
Versions: 1 2 3 4 5 6 7 8 9 10 11 12 13 14 15 16 17 18 19 20 21 22 23 24 25 26 27 28 29 30 31 32 33 34 35 36 37 38 39 40 41 42 43 44 45 46 47 48 49 50
000
ASUS43 KLMK 201910
RWRKY
KENTUCKY REGIONAL WEATHER ROUNDUP
NATIONAL WEATHER SERVICE LOUISVILLE KY
200 PM EST TUE FEB 20 2018

NOTE "FAIR" INDICATES FEW OR NO CLOUDS BELOW 12,000 FEET
WITH NO SIGNIFICANT WEATHER AND/OR OBSTRUCTIONS TO VISIBILITY.

KYZ001>023-026-027-061>063-070>075-202000-
WESTERN AND SOUTH CENTRAL KENTUCKY

CITY           SKY/WX    TMP DP  RH WIND       PRES   REMARKS
PADUCAH        FAIR      76  58  53 S12G32    30.06F
HENDERSON      FAIR      77  59  53 S20G26    30.06F
OWENSBORO      FAIR      78  57  48 S21       30.08F
HOPKINSVILLE   FAIR      77  56  47 S24G35    30.13F
BOWLING GREEN  PTSUNNY   77  59  53 S22G36    30.17F
GLASGOW        CLOUDY    75  56  51 SW14G29   30.19F
$$

KYZ024-025-028>034-038-045-046-053-202000-
NORTH CENTRAL KENTUCKY

CITY           SKY/WX    TMP DP  RH WIND       PRES   REMARKS
LOUISVILLE/SDF CLOUDY    81  53  37 S23G32    30.11F
LOUISVILLE/LOU FAIR      80  54  40 S18G32    30.12F
FORT KNOX      FAIR      78  53  42 S18G31    30.14F
$$

KYZ035>037-039>044-047>052-055>060-089>105-202000-
NORTHEAST KENTUCKY

CITY           SKY/WX    TMP DP  RH WIND       PRES   REMARKS
LEXINGTON      FAIR      78  53  41 S22G33    30.17F
COVINGTON      PTSUNNY   76  56  49 SW17G35   30.11F
FRANKFORT      FAIR      77  53  43 S25G37    30.15S
$$

KYZ054-064>069-076>088-106>120-202000-
SOUTHEAST KENTUCKY

CITY           SKY/WX    TMP DP  RH WIND       PRES   REMARKS
JACKSON        FAIR      78  52  40 S13G28    30.24F
LONDON         FAIR      77  54  44 SW17G31   30.25F
SOMERSET       PTSUNNY   77  54  44 MISG      30.24F
MIDDLESBORO    FAIR      76  55  47 S12G18    30.28F
MONTICELLO     NOT AVBL
$$





USA.gov is the U.S. government's official web portal to all federal, state and local government web resources and services.